Flag for Germany Weather past 2 weeks in Herford, North Rhine-Westphalia, Germany

Now
54 °F

Passing clouds.


Feels Like: 50 °F
Forecast: 46 / 68 °F
Wind: 10 mph from East

Location: Bueckeburg


UV Index: 3 (Moderate)

Visibility: N/A


Pressure: 30.12 "Hg

Humidity: 72%

Dew point: 45 °F

Location of HerfordLocation

Historic Weather in Herford

°F

Herford temperature yesterday

Maximum temperature yesterday: 52 °F (at 6:20 PM)
Minimum temperature yesterday: 43 °F (at 6:20 AM)
Average temperature yesterday: 46 °F

Past Weeks' High & Low Weather Summary

 TemperatureHumidityPressure
High70 °F (Apr 7, 4:20 PM)100% (Apr 5, 2:20 AM)30.48 "Hg (Apr 5, 2:20 AM)
Low30 °F (Apr 16, 4:20 AM)31% (Apr 17, 6:20 PM)29.71 "Hg (Apr 8, 6:20 AM)
Average50 °F76%30.05 "Hg
* Reported Apr 4 11:20 AM — Apr 19 11:20 AM, Herford, Weather by CustomWeather, © 2014

Note: Actual official high and low records may vary slightly from our data, if they occured in-between our weather recording intervals... More about our weather records

Advertising

Historic Weather Conditions — Data for Previous 24 hours

 ConditionsComfort  
Time TempWeatherWind HumidityBarometerVisibility
11:20 AM
Apr 19
50 °FPassing clouds.14 mph76%30.12 "HgN/A
10:20 AM48 °FPassing clouds.9 mph82%30.12 "Hg5 mi
9:20 AM46 °FFog.6 mph82%30.12 "Hg3 mi
8:20 AM43 °FFog.3 mph93%30.12 "Hg3 mi
7:20 AM41 °FFog.5 mph93%30.09 "Hg2 mi
6:58 AM39 °FFog.7 mph100%30.07 "Hg1 mi
6:20 AM41 °FFog.6 mph93%30.07 "Hg1 mi
5:45 AM41 °FPassing clouds.2 mph93%30.07 "Hg5 mi
5:20 AM39 °FFog.3 mph100%30.04 "Hg4 mi
4:20 AM41 °FPassing clouds.5 mph93%30.04 "Hg5 mi
3:20 AM41 °FPassing clouds.5 mph100%30.01 "HgN/A
2:20 AM43 °FPassing clouds.5 mph93%30.01 "HgN/A
1:20 AM43 °FPartly cloudy.3 mph93%29.98 "HgN/A
12:20 AM43 °FPassing clouds.No wind93%29.98 "HgN/A
11:20 PM
Apr 18
43 °FPartly cloudy.1 mph93%29.98 "HgN/A
10:20 PM43 °FPassing clouds.2 mph93%29.95 "HgN/A
9:20 PM43 °FLight rain. Partly sunny.7 mph93%29.95 "Hg5 mi
8:20 PM43 °FSprinkles. Partly sunny.6 mph93%29.95 "Hg3 mi
8:01 PM43 °FSprinkles. Partly sunny.7 mph93%29.92 "Hg4 mi
7:20 PM48 °FRain showers. Partly sunny.10 mph71%29.92 "Hg4 mi
6:20 PM52 °FScattered clouds.14 mph58%29.89 "HgN/A
5:20 PM50 °FBroken clouds.14 mph58%29.89 "HgN/A
4:20 PM50 °FBroken clouds.10 mph71%29.89 "HgN/A
3:20 PM48 °FScattered clouds.9 mph82%29.89 "HgN/A
2:20 PM50 °FScattered clouds.15 mph62%29.89 "HgN/A
1:20 PM48 °FBroken clouds.17 mph62%29.89 "HgN/A
Weather by CustomWeather, © 2014

See weather overview